Winona, MN

11:09 AM CDT on May 26, 2017 (GMT -0500)
Winona Municipal-Conrad

Weather History for KONA - January, 2013

Change the Weather History Date:

Wednesday, January 30, 2013

  Actual Average Record
Temperature  
Mean Temperature 23 °F -  
Max Temperature 32 °F 29 °F 48 °F (2016)
Min Temperature 14 °F 9 °F -13 °F (2004)
Degree Days  
Heating Degree Days 42    
Moisture  
Dew Point 16 °F    
Average Humidity 77    
Maximum Humidity 93    
Minimum Humidity 67    
Precipitation  
Precipitation 0.02 in - - ()
Sea Level Pressure  
Sea Level Pressure 29.59 in    
Wind  
Wind Speed 13 mph (NNW)    
Max Wind Speed 23 mph    
Max Gust Speed 31 mph    
Visibility 6 miles    
Events Snow    
Averages and records for this station are not official NWS values.
T = Trace of Precipitation, MM = Missing Value Source: NWS Daily Summary

Daily Weather History Graph

Daily Weather History Graph

Search for Another Location

Airport or City:

Trip Planner

Search our weather history database for the weather conditions in past years. The results will help you decide how hot, cold, wet, or windy it might be!

Date:

Astronomy

Jan. 30, 2013 Rise Set
Actual Time 7:26 AM CST 5:14 PM CST
Civil Twilight 6:55 AM CST 5:45 PM CST
Nautical Twilight 6:20 AM CST 6:20 PM CST
Astronomical Twilight 5:46 AM CST 6:54 PM CST
Moon 9:24 PM CST (1/30) 8:44 AM CST (1/30)
Length of Visible Light 10h 50m
Length of Day
9h 48m
Waning Gibbous, 87% of the Moon is Illuminated
Jan 30
Waning Gibbous
Feb 3
Last Quarter
Feb 10
New
Feb 17
First Quarter
Feb 25
Full

Hourly Weather History & Observations

Time (CST) Temp. Windchill Dew Point Humidity Pressure Visibility Wind Dir Wind Speed Gust Speed Precip Events Conditions
12:14 AM 32.0 °F 25.6 °F 28.4 °F 87% 29.63 in 10.0 mi North 6.9 mph 17.3 mph N/A   Overcast
12:35 AM 32.0 °F 23.6 °F 28.4 °F 87% 29.59 in 10.0 mi North 10.4 mph 19.6 mph N/A   Overcast
12:55 AM 30.2 °F 21.9 °F 24.8 °F 80% 29.57 in 10.0 mi North 9.2 mph - N/A   Overcast
1:14 AM 30.2 °F 22.6 °F 23.0 °F 75% 29.57 in 10.0 mi North 8.1 mph 16.1 mph N/A   Overcast
1:35 AM 30.2 °F 22.6 °F 23.0 °F 75% 29.59 in 10.0 mi North 8.1 mph 16.1 mph N/A   Overcast
1:55 AM 30.2 °F 20.2 °F 23.0 °F 75% 29.59 in 10.0 mi North 12.7 mph 19.6 mph N/A   Overcast
2:14 AM 30.2 °F 24.3 °F 23.0 °F 75% 29.59 in 10.0 mi North 5.8 mph - N/A   Overcast
2:35 AM 30.2 °F 21.3 °F 23.0 °F 75% 29.58 in 10.0 mi North 10.4 mph 18.4 mph N/A   Overcast
2:55 AM 30.2 °F 22.6 °F 23.0 °F 75% 29.57 in 10.0 mi North 8.1 mph 16.1 mph N/A   Overcast
3:14 AM 30.2 °F 22.6 °F 23.0 °F 75% 29.57 in 10.0 mi North 8.1 mph - N/A   Overcast
3:35 AM 30.2 °F 21.3 °F 23.0 °F 75% 29.59 in 10.0 mi North 10.4 mph 19.6 mph N/A   Overcast
3:55 AM 30.2 °F 20.8 °F 23.0 °F 75% 29.57 in 10.0 mi NNW 11.5 mph 18.4 mph N/A   Overcast
4:14 AM 30.2 °F 21.3 °F 21.2 °F 69% 29.57 in 10.0 mi North 10.4 mph 16.1 mph N/A   Overcast
4:35 AM 30.2 °F 22.6 °F 23.0 °F 75% 29.57 in 7.0 mi North 8.1 mph 18.4 mph N/A   Overcast
4:54 AM 28.4 °F 19.7 °F 23.0 °F 80% 29.54 in 5.0 mi North 9.2 mph 17.3 mph N/A Snow Light Snow
5:15 AM 28.4 °F 16.6 °F 23.0 °F 80% 29.55 in 10.0 mi NNW 16.1 mph 19.6 mph N/A   Overcast
5:35 AM 28.4 °F 17.0 °F 24.8 °F 86% 29.55 in 4.0 mi NNW 15.0 mph 21.9 mph N/A Snow Light Snow
5:54 AM 28.4 °F 17.5 °F 24.8 °F 86% 29.54 in 2.5 mi NNW 13.8 mph 18.4 mph N/A Snow Light Snow
6:15 AM 28.4 °F 17.5 °F 23.0 °F 80% 29.53 in 3.0 mi NNW 13.8 mph 20.7 mph N/A Snow Light Snow
6:35 AM 26.6 °F 16.8 °F 21.2 °F 80% 29.53 in 2.5 mi NNW 10.4 mph 16.1 mph N/A Snow Light Snow
6:54 AM 26.6 °F 17.5 °F 23.0 °F 86% 29.52 in 2.0 mi NNW 9.2 mph - N/A Snow Light Snow
7:15 AM 26.6 °F 14.3 °F 21.2 °F 80% 29.53 in 2.5 mi NNW 16.1 mph 21.9 mph N/A Snow Light Snow
7:35 AM 24.8 °F 13.4 °F 21.2 °F 86% 29.54 in 4.0 mi NNW 12.7 mph 19.6 mph N/A Snow Light Snow
7:54 AM 24.8 °F 12.9 °F 21.2 °F 86% 29.55 in 2.5 mi NNW 13.8 mph 17.3 mph N/A Snow Light Snow
8:15 AM 23.0 °F 11.1 °F 19.4 °F 86% 29.57 in 0.8 mi NW 12.7 mph - N/A Snow Light Snow
8:35 AM 23.0 °F 10.1 °F 19.4 °F 86% 29.54 in 1.0 mi NNW 15.0 mph 21.9 mph 0.01 in Snow Light Snow
8:54 AM 23.0 °F 10.6 °F 21.2 °F 93% 29.56 in 0.5 mi NNW 13.8 mph 19.6 mph 0.02 in Snow Light Snow
9:15 AM 23.0 °F 9.2 °F 21.2 °F 93% 29.54 in 1.0 mi NNW 17.3 mph 24.2 mph N/A Snow Light Snow
9:35 AM 23.0 °F 9.6 °F 21.2 °F 93% 29.54 in 1.5 mi NW 16.1 mph 23.0 mph N/A Snow Light Snow
9:55 AM 23.0 °F 10.1 °F 19.4 °F 86% 29.55 in 1.2 mi NW 15.0 mph 25.3 mph N/A Snow Light Snow
10:15 AM 23.0 °F 10.1 °F 19.4 °F 86% 29.55 in 1.8 mi NW 15.0 mph 21.9 mph N/A Snow Light Snow
10:34 AM 23.0 °F 9.6 °F 19.4 °F 86% 29.55 in 2.5 mi NW 16.1 mph 20.7 mph N/A Snow Light Snow
10:55 AM 23.0 °F 8.7 °F 17.6 °F 80% 29.55 in 2.5 mi NW 18.4 mph 26.5 mph N/A Snow Light Snow
11:15 AM 21.2 °F 6.0 °F 17.6 °F 86% 29.54 in 1.5 mi NW 19.6 mph 27.6 mph N/A Snow Light Snow
11:34 AM 21.2 °F 6.0 °F 17.6 °F 86% 29.54 in 1.8 mi NW 19.6 mph 25.3 mph N/A Snow Light Snow
11:55 AM 21.2 °F 4.9 °F 17.6 °F 86% 29.55 in 1.8 mi NW 23.0 mph 31.1 mph N/A Snow Light Snow
12:15 PM 21.2 °F 6.0 °F 15.8 °F 80% 29.55 in 2.0 mi NW 19.6 mph 26.5 mph N/A Snow Light Snow
12:34 PM 21.2 °F 5.2 °F 15.8 °F 80% 29.55 in 1.5 mi NW 21.9 mph 29.9 mph N/A Snow Light Snow
12:55 PM 21.2 °F 5.2 °F 15.8 °F 80% 29.56 in 2.0 mi NW 21.9 mph 28.8 mph N/A Snow Light Snow
1:15 PM 19.4 °F 3.6 °F 14.0 °F 80% 29.56 in 3.0 mi NW 19.6 mph 28.8 mph N/A Snow Light Snow
1:35 PM 19.4 °F 4.1 °F 14.0 °F 80% 29.56 in 5.0 mi NNW 18.4 mph 25.3 mph N/A   Haze
1:55 PM 19.4 °F 3.6 °F 14.0 °F 80% 29.55 in 4.0 mi NNW 19.6 mph 27.6 mph N/A   Haze
2:14 PM 19.4 °F 4.5 °F 14.0 °F 80% 29.56 in 3.0 mi NNW 17.3 mph - N/A Snow Light Snow
2:35 PM 19.4 °F 4.1 °F 14.0 °F 80% 29.56 in 4.0 mi NNW 18.4 mph - N/A Snow Light Snow
2:55 PM 19.4 °F 5.0 °F 14.0 °F 80% 29.57 in 5.0 mi NW 16.1 mph 20.7 mph N/A Snow Light Snow
3:14 PM 19.4 °F 3.6 °F 12.2 °F 74% 29.57 in 10.0 mi NNW 19.6 mph 26.5 mph N/A   Overcast
3:35 PM 19.4 °F 5.5 °F 10.4 °F 68% 29.58 in 10.0 mi NW 15.0 mph 26.5 mph N/A   Overcast
3:55 PM 19.4 °F 3.6 °F 10.4 °F 68% 29.59 in 10.0 mi NW 19.6 mph 26.5 mph N/A Snow Light Snow
4:14 PM 19.4 °F 4.5 °F 10.4 °F 68% 29.59 in 7.0 mi NW 17.3 mph 29.9 mph N/A Snow Light Snow
4:35 PM 17.6 °F 2.2 °F 10.4 °F 73% 29.60 in 10.0 mi NW 17.3 mph 25.3 mph N/A   Overcast
4:55 PM 17.6 °F 1.7 °F 8.6 °F 68% 29.60 in 10.0 mi NNW 18.4 mph 25.3 mph N/A   Overcast
5:14 PM 17.6 °F 2.7 °F 8.6 °F 68% 29.61 in 10.0 mi NNW 16.1 mph 21.9 mph N/A   Overcast
5:35 PM 17.6 °F 4.3 °F 8.6 °F 68% 29.62 in 10.0 mi NNW 12.7 mph 20.7 mph N/A   Overcast
5:55 PM 17.6 °F 3.2 °F 10.4 °F 73% 29.62 in 7.0 mi NW 15.0 mph 23.0 mph N/A Snow Light Snow
6:14 PM 15.8 °F -0.2 °F 8.6 °F 73% 29.64 in 10.0 mi NNW 17.3 mph 23.0 mph N/A   Overcast
6:35 PM 15.8 °F -1.9 °F 8.6 °F 73% 29.65 in 7.0 mi NW 21.9 mph 31.1 mph N/A   Overcast
6:54 PM 15.8 °F -0.2 °F 6.8 °F 68% 29.65 in 10.0 mi NW 17.3 mph - N/A   Overcast
7:15 PM 15.8 °F 0.3 °F 6.8 °F 68% 29.65 in 10.0 mi NW 16.1 mph - N/A   Overcast
7:35 PM 15.8 °F -0.2 °F 6.8 °F 68% 29.66 in 10.0 mi NW 17.3 mph 26.5 mph N/A   Overcast
7:55 PM 15.8 °F 0.9 °F 8.6 °F 73% 29.66 in 1.8 mi NW 15.0 mph 21.9 mph N/A Snow Light Snow
8:15 PM 14.0 °F -2.5 °F 5.0 °F 67% 29.66 in 7.0 mi NW 17.3 mph 25.3 mph N/A   Overcast
8:35 PM 14.0 °F -1.4 °F 5.0 °F 67% 29.67 in 10.0 mi NW 15.0 mph 24.2 mph N/A   Overcast
8:55 PM 14.0 °F -3.0 °F 5.0 °F 67% 29.67 in 10.0 mi NNW 18.4 mph 27.6 mph N/A   Overcast
9:15 PM 14.0 °F -3.0 °F 5.0 °F 67% 29.67 in 10.0 mi NNW 18.4 mph 25.3 mph N/A   Overcast
9:35 PM 14.0 °F 1.2 °F 5.0 °F 67% 29.68 in 10.0 mi NW 10.4 mph 21.9 mph N/A   Overcast
9:55 PM 14.0 °F -0.2 °F 5.0 °F 67% 29.68 in 10.0 mi NW 12.7 mph - N/A   Overcast
10:15 PM 14.0 °F -1.4 °F 5.0 °F 67% 29.68 in 10.0 mi NW 15.0 mph 24.2 mph N/A   Overcast
10:35 PM 14.0 °F -0.2 °F 5.0 °F 67% 29.68 in 10.0 mi NW 12.7 mph - N/A   Overcast
10:55 PM 14.0 °F 1.2 °F 6.8 °F 73% 29.69 in 10.0 mi NNW 10.4 mph - N/A   Overcast
11:15 PM 14.0 °F 0.5 °F 6.8 °F 73% 29.69 in 7.0 mi NNW 11.5 mph 19.6 mph N/A Snow Light Snow
11:34 PM 14.0 °F 1.2 °F 8.6 °F 79% 29.70 in 4.0 mi NW 10.4 mph - N/A Snow Light Snow
11:55 PM 14.0 °F -3.0 °F 8.6 °F 79% 29.71 in 7.0 mi NNW 18.4 mph 26.5 mph N/A   Overcast